COSMOS 1275 DEB, 18505

Orbit data source: Space-Track

COSMOS 1275 DEB, 18505 is space debris in LEO originally from a launch on Thu, 04 Jun 1981 UTC launched from the Plesetsk Missile And Space Complex (PKMTR). Debris objects in space refer to the collection of defunct objects orbiting the Earth. Examples of debris include non-operational satellites, rocket bodies, and fragments generated from explosions, collisions, or faulty payload assembly.

Loading next visibility...
Identifier
18505, 1981-053LS
Orbit
LEO
Country
Flag of CISCIS
Related business
Manufacturer
Unknown
Mission
Spacecraft
Bus & Motor
Unknown
Mass
Unknown
Launch date (UTC)
1981-06-04 (45 years ago)
Launch vehicle
Unknown
Launch site
Plesetsk Missile And Space Complex (PKMTR)
Object type
Payload
Rocket body
Debris
Shape & HBR
Unknown shape, 0.1 m
Radar Cross Section
Small (<0.1 m²)

Expand to show TLE details & history
Last TLE update: 1 day ago

TLE from 1 day ago
0 COSMOS 1275 DEB
1 18505U 81053LS  26037.37007622  .00002441  00000-0  16071-2 0  9999
2 18505  83.2890 176.3359 0067249 341.8113  18.0653 14.00365849 54994
Epoch: 2026-02-06T08:52Z
TLE epoch observation values (Epoch: 2026-02-06T08:52:54.585Z)
Latitude
0.00002°
Longitude
-93.40046°
Altitude
849.011 km
Speed
7.452 km/s
True Right ascension
11h 45m 20s
True Declination
0° 00' 00"
Sunlit
Object was in full shadow at epoch
Visualization orbit readout
Latitude
Unknown
Longitude
Unknown
Altitude
Unknown
Speed
Unknown
Apparent Right ascension
Unknown
Apparent Declination
Unknown
Sunlit
N/A
Visualization observer readout
Local Sidereal Time
14:21:17
Azimuth
Unknown
Elevation
Unknown
Doppler factor
Unknown
Orbital elements
Apogee altitude
938.504 km
Perigee altitude
840.754 km
Semi-major axis
7,267.766 km
Eccentricity
0.00672
Inclination
83.289°
RAAN
176.3359°
Arg. of periapsis
341.8113°
True anomaly
18.30619°
Mean anomaly
18.0653°
Eccentric anomaly
18.18555°
Mean motion
3.50301 °/min
Orbital period
102.77 mins
BSTAR
0.0016071
Loading maneuver chart data...
Computing Atmospheric mass density...
Loading historical data...
Loading historical data...
Loading historical data...
Loading historical data...
Loading historical data...
Loading historical data...
Loading historical data...

Documentation

Showing up to 5 results
|